Date String (YYYY-MM-DD hh:mm:ss) UTC,Instrument flags,Ambient pressure (hPa),Sample flow (lpm),Bypass flow (lpm),Sample temperature (°C),Ambient temperature (°C),ASC tube jacket temperature (°C),LED temperature (°C),Box temperature (°C),Sample RH (%),Span deviation,Mass concentration (μg/m³),Mass concentration (μg/m³),Mass concentration (μg/m³)
DateTimeUTC,F1_M11,P_M11,Q1_M11,Q2_M11,T1_M11,T2_M11,T3_M11,T4_M11,T5_M11,U1_M11,ZSPAN_M11,X0_M11,X2_M11,X1_M11
2022-03-31 08:00:00,,0819.4,5.01,0.00,22.4,21.6,00.0,31.4,24.2,10.9,0000.0,0008.76,0003.37,0002.42
2022-03-31 08:01:00,,0819.4,4.99,0.00,22.4,21.6,00.0,31.4,24.2,10.9,0000.0,0008.79,0003.38,0002.43
2022-03-31 08:02:00,,0819.4,5.00,0.00,22.4,21.6,00.0,31.4,24.2,10.9,0000.0,0008.76,0003.35,0002.42
2022-03-31 08:03:00,,0819.4,5.00,0.00,22.4,21.6,00.0,31.4,24.2,10.9,0000.0,0008.63,0003.35,0002.43
2022-03-31 08:04:00,,0819.4,5.00,0.00,22.4,21.6,00.0,31.4,24.2,10.9,0000.0,0008.72,0003.33,0002.44
2022-03-31 08:05:00,,0819.4,5.00,0.00,22.4,21.6,00.0,31.4,24.2,10.9,0000.0,0009.07,0003.30,0002.44
2022-03-31 08:06:00,,0819.4,5.00,0.00,22.4,21.6,00.0,31.4,24.2,10.9,0000.0,0008.97,0003.27,0002.44
2022-03-31 08:07:00,,0819.4,4.99,0.00,22.4,21.6,00.0,31.4,24.2,10.9,0000.0,0008.63,0003.32,0002.44
2022-03-31 08:08:00,,0819.4,5.00,0.00,22.4,21.6,00.0,31.4,24.2,10.9,0000.0,0008.53,0003.34,0002.46
2022-03-31 08:09:00,,0819.4,5.01,0.00,22.4,21.6,00.0,31.4,24.2,10.8,0000.0,0008.46,0003.33,0002.46
2022-03-31 08:10:00,,0819.4,5.00,0.00,22.4,21.6,00.0,31.4,24.2,10.8,0000.0,0008.34,0003.31,0002.46
2022-03-31 08:11:00,,0819.4,5.00,0.00,22.4,21.5,00.0,31.4,24.2,10.7,0000.0,0007.71,0003.30,0002.47
2022-03-31 08:12:00,,0819.4,5.00,0.00,22.4,21.5,00.0,31.4,24.2,10.6,0000.0,0007.39,0003.27,0002.47
2022-03-31 08:13:00,,0819.4,5.00,0.00,22.4,21.5,00.0,31.4,24.1,10.6,0000.0,0007.33,0003.27,0002.46
2022-03-31 08:14:00,,0819.4,5.00,0.00,22.4,21.5,00.0,31.4,24.1,10.6,0000.0,0007.27,0003.30,0002.46
2022-03-31 08:15:00,,0819.4,5.00,0.00,22.3,21.4,00.0,31.4,24.1,10.6,0000.0,0006.75,0003.34,0002.47
2022-03-31 08:16:00,,0819.4,4.99,0.00,22.3,21.4,00.0,31.4,24.1,10.6,0000.0,0006.06,0003.37,0002.47
2022-03-31 08:17:00,,0819.4,5.00,0.00,22.3,21.4,00.0,31.4,24.1,10.4,0000.0,0005.96,0003.36,0002.45
2022-03-31 08:18:00,,0819.3,5.00,0.00,22.3,21.4,00.0,31.3,24.1,10.1,0000.0,0006.92,0003.30,0002.40
2022-03-31 08:19:00,,0819.2,5.00,0.00,22.3,21.4,00.0,31.3,24.0,10.1,0000.0,0006.80,0003.25,0002.34
2022-03-31 08:20:00,,0819.2,5.00,0.00,22.3,21.4,00.0,31.3,24.0,10.2,0000.0,0006.80,0003.24,0002.31
2022-03-31 08:21:00,,0819.2,5.01,0.00,22.3,21.4,00.0,31.3,24.0,10.3,0000.0,0007.01,0003.25,0002.28
2022-03-31 08:22:00,,0819.3,5.01,0.00,22.3,21.8,00.0,31.3,24.1,10.1,0000.0,0007.18,0003.27,0002.26
2022-03-31 08:23:00,,0819.4,5.00,0.00,22.4,22.5,00.0,31.4,24.4,09.8,0000.0,0007.22,0003.27,0002.24
2022-03-31 08:24:00,,0819.3,5.00,0.00,22.6,23.1,00.0,31.4,24.6,09.8,0000.0,0007.09,0003.25,0002.21
2022-03-31 08:25:00,,0819.2,5.00,0.00,22.6,23.0,00.0,31.4,24.6,09.8,0000.0,0006.89,0003.22,0002.17
2022-03-31 08:26:00,,0819.3,4.99,0.00,22.6,22.7,00.0,31.5,24.6,09.7,0000.0,0006.95,0003.20,0002.12
2022-03-31 08:27:00,,0819.3,5.00,0.00,22.6,22.5,00.0,31.5,24.5,09.7,0000.0,0006.92,0003.17,0002.08
2022-03-31 08:28:00,,0819.2,5.00,0.00,22.6,22.3,00.0,31.5,24.4,09.7,0000.0,0006.87,0003.16,0002.06
2022-03-31 08:29:00,,0819.2,5.00,0.00,22.6,22.2,00.0,31.5,24.4,09.7,0000.0,0005.73,0003.18,0002.05
2022-03-31 08:30:00,,0819.2,4.98,0.00,22.6,22.0,00.0,31.5,24.3,09.6,0000.0,0005.94,0003.21,0002.05
2022-03-31 08:31:00,,0819.2,5.00,0.00,22.5,21.9,00.0,31.5,24.3,09.7,0000.0,0006.01,0003.22,0002.04
2022-03-31 08:32:00,,0819.2,5.00,0.00,22.5,21.9,00.0,31.5,24.3,09.7,0000.0,0005.96,0003.20,0002.03
2022-03-31 08:33:00,,0819.2,5.00,0.00,22.5,21.8,00.0,31.5,24.3,09.7,0000.0,0006.08,0003.17,0002.04
2022-03-31 08:34:00,,0819.2,5.00,0.00,22.5,21.7,00.0,31.5,24.3,09.8,0000.0,0006.06,0003.17,0002.05
2022-03-31 08:35:00,,0819.2,5.00,0.00,22.5,21.7,00.0,31.5,24.3,09.9,0000.0,0006.28,0003.20,0002.08
2022-03-31 08:36:00,,0819.2,5.01,0.00,22.5,21.6,00.0,31.5,24.2,09.9,0000.0,0006.45,0003.22,0002.09
2022-03-31 08:37:00,,0819.2,5.01,0.00,22.5,21.6,00.0,31.5,24.2,10.0,0000.0,0006.57,0003.23,0002.10
2022-03-31 08:38:00,,0819.2,5.00,0.00,22.4,21.5,00.0,31.5,24.2,10.0,0000.0,0006.91,0003.25,0002.11
2022-03-31 08:39:00,,0819.3,4.99,0.00,22.4,21.5,00.0,31.5,24.1,09.9,0000.0,0007.26,0003.27,0002.14
2022-03-31 08:40:00,,0819.2,5.00,0.00,22.4,21.5,00.0,31.4,24.1,10.0,0000.0,0007.77,0003.29,0002.14
2022-03-31 08:41:00,,0819.2,4.99,0.00,22.4,21.4,00.0,31.4,24.1,10.1,0000.0,0007.79,0003.27,0002.15
2022-03-31 08:42:00,,0819.2,5.01,0.00,22.4,21.4,00.0,31.4,24.1,10.0,0000.0,0007.81,0003.27,0002.16
2022-03-31 08:43:00,,0819.3,5.00,0.00,22.3,21.4,00.0,31.4,24.0,09.9,0000.0,0007.79,0003.28,0002.16
2022-03-31 08:44:00,,0819.3,5.00,0.00,22.3,21.4,00.0,31.4,24.0,10.1,0000.0,0007.62,0003.29,0002.14
2022-03-31 08:45:00,,0819.3,5.00,0.00,22.3,21.4,00.0,31.4,24.0,10.2,0000.0,0007.67,0003.29,0002.14
2022-03-31 08:46:00,,0819.2,4.99,0.00,22.3,21.4,00.0,31.4,24.0,10.3,0000.0,0007.98,0003.27,0002.12
2022-03-31 08:47:00,,0819.2,4.99,0.00,22.3,21.4,00.0,31.4,24.0,10.2,0000.0,0008.22,0003.29,0002.14
2022-03-31 08:48:00,,0819.2,5.00,0.00,22.3,21.3,00.0,31.4,24.0,10.1,0000.0,0008.16,0003.29,0002.16
2022-03-31 08:49:00,,0819.1,5.01,0.00,22.3,21.3,00.0,31.4,24.0,10.1,0000.0,0007.95,0003.27,0002.18
2022-03-31 08:50:00,,0819.1,4.99,0.00,22.3,21.6,00.0,31.4,24.0,10.1,0000.0,0007.75,0003.24,0002.19
2022-03-31 08:51:00,,0819.1,5.00,0.00,22.4,22.4,00.0,31.4,24.3,10.1,0000.0,0007.17,0003.20,0002.20
2022-03-31 08:52:00,,0819.1,5.00,0.00,22.5,23.1,00.0,31.5,24.6,10.0,0000.0,0007.41,0003.25,0002.23
2022-03-31 08:53:00,,0819.1,5.00,0.00,22.6,23.1,00.0,31.5,24.6,10.0,0000.0,0007.82,0003.27,0002.25
2022-03-31 08:54:00,,0819.1,4.99,0.00,22.6,22.9,00.0,31.5,24.6,10.0,0000.0,0007.83,0003.27,0002.26
2022-03-31 08:55:00,,0819.1,4.99,0.00,22.6,22.6,00.0,31.5,24.5,10.0,0000.0,0007.95,0003.25,0002.26
2022-03-31 08:56:00,,0819.1,5.01,0.00,22.6,22.4,00.0,31.5,24.5,10.0,0000.0,0008.08,0003.28,0002.28
2022-03-31 08:57:00,,0819.1,5.00,0.00,22.6,22.2,00.0,31.5,24.4,10.0,0000.0,0007.80,0003.30,0002.30
2022-03-31 08:58:00,,0819.1,5.00,0.00,22.6,22.0,00.0,31.5,24.3,10.0,0000.0,0007.86,0003.27,0002.30
2022-03-31 08:59:00,,0819.1,5.00,0.00,22.5,21.9,00.0,31.5,24.3,09.9,0000.0,0008.31,0003.23,0002.28
